When you browse on this site, cookies collect data to enhance your experience and personalize the content and advertising you see.
Visit our Privacy Policy to learn more. By continuing to use the site, you agree to this use of cookies and data.

Hourly Weather Tysaahtelek

Today, 3 August, Monday

Time Temperature Precipitation Wind Pressure Humidity
00:00 +19°C° 0 mm 1 mps 751 mmHg 70%
01:00 +18°C° 0 mm 1 mps 751 mmHg 74%
02:00 +18°C° 0 mm 1 mps 751 mmHg 76%
03:00 +18°C° 0 mm 1 mps 751 mmHg 78%
04:00 +16°C° 0 mm 1 mps 751 mmHg 80%
05:00 +19°C° 0 mm 1 mps 750 mmHg 76%
06:00 +20°C° 0 mm 1 mps 750 mmHg 72%
07:00 +21°C° 0 mm 2 mps 750 mmHg 69%
08:00 +23°C° 0 mm 2 mps 750 mmHg 64%
09:00 +25°C° 0 mm 3 mps 750 mmHg 59%
10:00 +26°C° 0 mm 3 mps 750 mmHg 54%
11:00 +27°C° 0 mm 3 mps 750 mmHg 52%
12:00 +28°C° 0 mm 3 mps 749 mmHg 49%
13:00 +29°C° 0 mm 4 mps 749 mmHg 46%
14:00 +29°C° 0 mm 3 mps 749 mmHg 48%
15:00 +29°C° 0 mm 3 mps 749 mmHg 50%
16:00 +29°C° 0 mm 2 mps 748 mmHg 51%
17:00 +28°C° 0 mm 2 mps 748 mmHg 56%
18:00 +26°C° 0 mm 3 mps 748 mmHg 62%
19:00 +25°C° 0 mm 3 mps 747 mmHg 67%
20:00 +24°C° 0 mm 3 mps 747 mmHg 67%
21:00 +22°C° 0 mm 3 mps 747 mmHg 68%
22:00 +21°C° 0 mm 3 mps 747 mmHg 68%
23:00 +21°C° 0 mm 3 mps 747 mmHg 68%

Tomorrow, 4 August, Tuesday

Time Temperature Precipitation Wind Pressure Humidity
00:00 +21°C° 0 mm 2 mps 747 mmHg 67%
01:00 +20°C° 0 mm 2 mps 747 mmHg 67%
02:00 +20°C° 0 mm 3 mps 747 mmHg 66%
03:00 +20°C° 0 mm 3 mps 746 mmHg 65%
04:00 +20°C° 0 mm 3 mps 746 mmHg 63%
05:00 +21°C° 0 mm 3 mps 746 mmHg 63%
06:00 +22°C° 0 mm 3 mps 746 mmHg 62%
07:00 +24°C° 0 mm 3 mps 746 mmHg 62%
08:00 +25°C° 0 mm 3 mps 746 mmHg 58%
09:00 +27°C° 0 mm 4 mps 746 mmHg 54%
10:00 +28°C° 0 mm 4 mps 746 mmHg 50%
11:00 +29°C° 0 mm 4 mps 746 mmHg 49%
12:00 +30°C° 0 mm 4 mps 747 mmHg 48%
13:00 +32°C° 0 mm 4 mps 747 mmHg 47%
14:00 +31°C° 0 mm 3 mps 747 mmHg 49%
15:00 +31°C° 0 mm 3 mps 747 mmHg 50%
16:00 +31°C° 0 mm 2 mps 747 mmHg 52%
17:00 +30°C° 0 mm 2 mps 747 mmHg 57%
18:00 +28°C° 0 mm 2 mps 747 mmHg 62%
19:00 +26°C° 0 mm 1 mps 747 mmHg 66%
20:00 +25°C° 0.1 mm 1 mps 747 mmHg 68%
21:00 +25°C° 0.1 mm 2 mps 748 mmHg 70%
22:00 +24°C° 0.1 mm 2 mps 748 mmHg 72%
23:00 +23°C° 1.1 mm 2 mps 748 mmHg 78%

Day after tomorrow, 5 August, Wednesday

Time Temperature Precipitation Wind Pressure Humidity
00:00 +21°C° 1.1 mm 3 mps 748 mmHg 84%
01:00 +21°C° 1.1 mm 3 mps 749 mmHg 90%
02:00 +20°C° 0.1 mm 3 mps 749 mmHg 90%
03:00 +20°C° 0.1 mm 3 mps 749 mmHg 90%
04:00 +20°C° 0.1 mm 3 mps 749 mmHg 90%
05:00 +21°C° 0.2 mm 3 mps 749 mmHg 88%
06:00 +22°C° 0.2 mm 3 mps 750 mmHg 86%
07:00 +24°C° 0.2 mm 3 mps 750 mmHg 84%
08:00 +25°C° 0 mm 3 mps 750 mmHg 77%
09:00 +27°C° 0 mm 4 mps 750 mmHg 71%
10:00 +28°C° 0 mm 4 mps 751 mmHg 64%
11:00 +29°C° 0 mm 4 mps 751 mmHg 62%
12:00 +29°C° 0 mm 5 mps 751 mmHg 61%
13:00 +30°C° 0 mm 5 mps 751 mmHg 59%
14:00 +29°C° 0 mm 5 mps 751 mmHg 61%
15:00 +28°C° 0 mm 5 mps 751 mmHg 62%
16:00 +28°C° 0 mm 5 mps 751 mmHg 64%
17:00 +26°C° 0 mm 5 mps 751 mmHg 69%
18:00 +25°C° 0 mm 5 mps 751 mmHg 74%
19:00 +23°C° 0 mm 4 mps 752 mmHg 79%
20:00 +22°C° 0 mm 4 mps 752 mmHg 80%
21:00 +22°C° 0 mm 3 mps 752 mmHg 81%
22:00 +21°C° 0 mm 3 mps 753 mmHg 82%
23:00 +21°C° 0 mm 3 mps 753 mmHg 81%

6 August, Thursday

Time Temperature Precipitation Wind Pressure Humidity
00:00 +21°C° 0 mm 2 mps 753 mmHg 81%
01:00 +21°C° 0 mm 2 mps 753 mmHg 80%
02:00 +21°C° 0 mm 2 mps 753 mmHg 78%
03:00 +21°C° 0 mm 2 mps 753 mmHg 75%
04:00 +21°C° 0 mm 2 mps 754 mmHg 73%
05:00 +23°C° 0 mm 2 mps 754 mmHg 73%
06:00 +23°C° 0 mm 2 mps 754 mmHg 73%
07:00 +24°C° 0 mm 2 mps 754 mmHg 73%
08:00 +25°C° 0 mm 2 mps 755 mmHg 68%
09:00 +27°C° 0 mm 2 mps 755 mmHg 63%
10:00 +28°C° 0 mm 2 mps 755 mmHg 57%
11:00 +29°C° 0 mm 2 mps 755 mmHg 53%
12:00 +30°C° 0 mm 2 mps 755 mmHg 48%
13:00 +31°C° 0 mm 2 mps 755 mmHg 44%
14:00 +31°C° 0 mm 3 mps 755 mmHg 45%
15:00 +31°C° 0 mm 3 mps 755 mmHg 46%
16:00 +32°C° 0 mm 4 mps 755 mmHg 48%
17:00 +29°C° 0 mm 4 mps 755 mmHg 53%
18:00 +27°C° 0 mm 4 mps 755 mmHg 58%
19:00 +25°C° 0 mm 4 mps 755 mmHg 63%
20:00 +23°C° 0 mm 4 mps 756 mmHg 66%
21:00 +22°C° 0 mm 3 mps 756 mmHg 70%
22:00 +21°C° 0 mm 2 mps 757 mmHg 73%
23:00 +20°C° 0 mm 2 mps 757 mmHg 75%

7 August, Friday

Time Temperature Precipitation Wind Pressure Humidity
00:00 +20°C° 0 mm 2 mps 757 mmHg 78%
01:00 +19°C° 0 mm 2 mps 757 mmHg 80%
02:00 +19°C° 0 mm 2 mps 757 mmHg 80%
03:00 +19°C° 0 mm 2 mps 757 mmHg 81%
04:00 +19°C° 0 mm 2 mps 757 mmHg 82%
05:00 +20°C° 0 mm 2 mps 757 mmHg 77%
06:00 +23°C° 0 mm 2 mps 757 mmHg 73%
07:00 +24°C° 0 mm 2 mps 757 mmHg 69%
08:00 +26°C° 0 mm 2 mps 757 mmHg 62%
09:00 +28°C° 0 mm 2 mps 757 mmHg 56%
10:00 +30°C° 0 mm 2 mps 757 mmHg 49%
11:00 +30°C° 0 mm 2 mps 756 mmHg 46%
12:00 +31°C° 0 mm 2 mps 756 mmHg 43%
13:00 +32°C° 0 mm 2 mps 756 mmHg 41%
14:00 +32°C° 0 mm 2 mps 755 mmHg 42%
15:00 +32°C° 0 mm 2 mps 755 mmHg 43%
16:00 +32°C° 0 mm 2 mps 755 mmHg 44%
17:00 +30°C° 0 mm 2 mps 755 mmHg 51%
18:00 +27°C° 0 mm 3 mps 755 mmHg 59%
19:00 +25°C° 0 mm 4 mps 755 mmHg 66%
20:00 +24°C° 0 mm 3 mps 755 mmHg 68%
21:00 +24°C° 0 mm 3 mps 755 mmHg 70%
22:00 +22°C° 0 mm 3 mps 755 mmHg 72%
23:00 +21°C° 0 mm 3 mps 755 mmHg 74%

8 August, Saturday

Time Temperature Precipitation Wind Pressure Humidity
00:00 +21°C° 0 mm 2 mps 755 mmHg 76%
01:00 +20°C° 0 mm 2 mps 755 mmHg 78%
02:00 +20°C° 0 mm 2 mps 755 mmHg 79%
03:00 +19°C° 0 mm 2 mps 755 mmHg 80%
04:00 +19°C° 0 mm 2 mps 755 mmHg 82%
05:00 +20°C° 0 mm 2 mps 755 mmHg 78%
06:00 +23°C° 0 mm 2 mps 755 mmHg 74%
07:00 +24°C° 0 mm 2 mps 754 mmHg 70%
08:00 +26°C° 0 mm 2 mps 754 mmHg 64%
09:00 +28°C° 0 mm 2 mps 754 mmHg 57%
10:00 +30°C° 0 mm 1 mps 754 mmHg 51%
11:00 +31°C° 0 mm 1 mps 754 mmHg 48%
12:00 +31°C° 0 mm 1 mps 753 mmHg 45%
13:00 +32°C° 0 mm 1 mps 753 mmHg 42%
14:00 +32°C° 0 mm 1 mps 753 mmHg 44%
15:00 +32°C° 0 mm 2 mps 752 mmHg 45%
16:00 +31°C° 0 mm 2 mps 752 mmHg 46%
17:00 +29°C° 0 mm 3 mps 752 mmHg 54%
18:00 +27°C° 0 mm 3 mps 752 mmHg 62%
19:00 +25°C° 0 mm 4 mps 752 mmHg 69%
20:00 +23°C° 0 mm 4 mps 752 mmHg 73%
21:00 +22°C° 0 mm 3 mps 752 mmHg 77%
22:00 +21°C° 0 mm 3 mps 752 mmHg 81%
23:00 +20°C° 0 mm 3 mps 752 mmHg 83%
Show more